Torna al catalogo

STARLINK-2658

AttivoComunicazioniVLEO
NORAD 48473·PAYLOAD·🇺🇸 United States

Lanciato May 9, 2021 da Cape Canaveral Space Force Station

Loading…

Prossimi Passaggi (prossime 24 ore)

TLE

AggiornatoSource: CelesTrak SupGP

Epoca: Sep 14, 2026, 21:26 UTC

1 48473C 21040AX  26257.89354167  .00024105  00000+0  77496-3 0  2572
2 48473  53.1599  30.4950 0000917  88.4126 100.0345 15.31697986    16

Traccia STARLINK-2658 in tempo reale con AllMySat

Download on the App Store